Weather History for Provo, UT

Change the Weather History Date:

Sunday, January 26, 2014

  Actual Average Record
Temperature  
Mean Temperature 22 °F -  
Max Temperature 35 °F 36 °F 50 °F (1987)
Min Temperature 8 °F 22 °F -2 °F (1989)
Degree Days  
Heating Degree Days 44    
Moisture  
Dew Point 12 °F    
Average Humidity 79    
Maximum Humidity 100    
Minimum Humidity 36    
Precipitation  
Precipitation 0.00 in - - ()
Sea Level Pressure  
Sea Level Pressure 30.19 in    
Wind  
Wind Speed 1 mph (WNW)    
Max Wind Speed 6 mph    
Max Gust Speed -    
Visibility 7 miles    
Events Fog    
Averages and records for this station are not official NWS values.
T = Trace of Precipitation, MM = Missing Value Source: NWS Daily Summary

Daily Weather History Graph

Daily Weather History Graph

Search for Another Location

Airport:

Trip Planner

Search our weather history database for the weather conditions in past years. The results will help you decide how hot, cold, wet, or windy it might be!

Date:

Astronomy

Jan. 26, 2014 Rise Set
Actual Time 7:40 AM MST 5:38 PM MST
Civil Twilight 7:11 AM MST 6:07 PM MST
Nautical Twilight 6:38 AM MST 6:40 PM MST
Astronomical Twilight 6:06 AM MST 7:12 PM MST
Moon 3:22 AM MST (1/26) 1:31 PM MST (1/26)
Length of Visible Light 10h 55m
Length of Day
9h 57m
Waning Crescent, 23% of the Moon is Illuminated
Jan 26
Waning Crescent
Jan 30
New
Feb 6
First Quarter
Feb 14
Full
Feb 22
Last Quarter

Hourly Weather History & Observations

Time (MST) Temp. Windchill Dew Point Humidity Pressure Visibility Wind Dir Wind Speed Gust Speed Precip Events Conditions
12:15 AM 17.6 °F - 14.0 °F 86% 30.27 in 8.0 mi Calm Calm - N/A   Clear
12:35 AM 15.8 °F - 10.4 °F 79% 30.27 in 10.0 mi Calm Calm - N/A   Clear
12:55 AM 15.8 °F - 12.2 °F 86% 30.26 in 10.0 mi Calm Calm - N/A   Clear
1:15 AM 17.6 °F - 14.0 °F 86% 30.25 in 8.0 mi Calm Calm - N/A   Clear
1:35 AM 17.6 °F - 15.8 °F 93% 30.25 in 7.0 mi Calm Calm - N/A   Clear
1:55 AM 17.6 °F - 15.8 °F 93% 30.24 in 6.0 mi Calm Calm - N/A   Clear
2:15 AM 17.6 °F - 15.8 °F 93% 30.24 in 6.0 mi Calm Calm - N/A   Clear
2:35 AM 15.8 °F - 12.2 °F 86% 30.25 in 7.0 mi Calm Calm - N/A   Clear
2:55 AM 15.8 °F - 8.6 °F 73% 30.25 in 7.0 mi Calm Calm - N/A   Clear
3:15 AM 12.2 °F 6.1 °F 6.8 °F 79% 30.25 in 5.0 mi West 3.5 mph - N/A   Clear
3:35 AM 12.2 °F - 8.6 °F 85% 30.24 in 5.0 mi Calm Calm - N/A   Clear
3:55 AM 12.2 °F 6.1 °F 12.2 °F 100% 30.23 in 6.0 mi NE 3.5 mph - N/A   Clear
4:15 AM 14.0 °F - 14.0 °F 100% 30.23 in 5.0 mi Calm Calm - N/A   Clear
4:35 AM 15.8 °F - 14.0 °F 93% 30.23 in 5.0 mi Calm Calm - N/A   Clear
4:55 AM 10.4 °F - 8.6 °F 92% 30.22 in 5.0 mi Calm Calm - N/A   Clear
5:15 AM 10.4 °F - 6.8 °F 85% 30.22 in 5.0 mi Calm Calm - N/A   Clear
5:35 AM 8.6 °F - 6.8 °F 92% 30.21 in 5.0 mi Calm Calm - N/A   Clear
5:55 AM 10.4 °F - 6.8 °F 85% 30.21 in 5.0 mi Calm Calm - N/A   Clear
6:15 AM 8.6 °F - 3.2 °F 79% 30.21 in 5.0 mi Calm Calm - N/A   Clear
6:35 AM 8.6 °F - 6.8 °F 92% 30.21 in 7.0 mi Calm Calm - N/A   Clear
6:47 AM 8.6 °F - 6.8 °F 92% 30.21 in 6.0 mi Calm Calm - N/A   Haze
7:55 AM 8.6 °F - 6.8 °F 92% 30.23 in 0.4 mi Calm Calm - N/A Fog Fog
8:56 AM 12.2 °F - 12.2 °F 100% 30.24 in 2.0 mi Calm Calm - N/A Fog Shallow Fog
9:06 AM 14.0 °F - 12.2 °F 93% 30.24 in 3.0 mi Calm Calm - N/A Fog Patches of Fog
9:53 AM 19.4 °F - 17.6 °F 93% 30.24 in 5.0 mi Calm Calm - N/A   Haze
10:54 AM 21.2 °F 16.4 °F 17.6 °F 86% 30.23 in 5.0 mi NW 3.5 mph - N/A   Haze
11:55 AM 26.6 °F - 17.6 °F 69% 30.20 in 5.0 mi Calm Calm - N/A   Haze
12:56 PM 30.2 °F - 15.8 °F 55% 30.17 in 7.0 mi Calm Calm - N/A   Haze
1:57 PM 30.2 °F 26.7 °F 15.8 °F 55% 30.14 in 7.0 mi WSW 3.5 mph - N/A   Haze
2:48 PM 32.0 °F - 15.8 °F 51% 30.13 in 10.0 mi Calm Calm - N/A   Clear
3:56 PM 35.6 °F - 15.8 °F 44% 30.12 in 10.0 mi Calm Calm - N/A   Clear
4:52 PM 33.8 °F - 15.8 °F 48% 30.11 in 10.0 mi Calm Calm - N/A   Clear
5:47 PM 35.6 °F - 12.2 °F 38% 30.11 in 10.0 mi Calm Calm - N/A   Clear
6:59 PM 21.2 °F - 14.0 °F 74% 30.11 in 10.0 mi Calm Calm - N/A   Clear
7:48 PM 21.2 °F - -2.2 °F 36% 30.10 in 10.0 mi Calm Calm - N/A   Clear
8:48 PM 21.2 °F - -2.2 °F 36% 30.10 in 10.0 mi Calm Calm - N/A   Clear
9:15 PM 17.6 °F 10.7 °F 8.6 °F 68% 30.09 in 9.0 mi SW 4.6 mph - N/A   Clear
9:35 PM 21.2 °F 14.9 °F 15.8 °F 80% 30.10 in 10.0 mi West 4.6 mph - N/A   Clear
9:55 PM 19.4 °F 12.8 °F 14.0 °F 80% 30.11 in 8.0 mi North 4.6 mph - N/A   Clear
10:15 PM 19.4 °F 14.3 °F 17.6 °F 93% 30.11 in 9.0 mi NNE 3.5 mph - N/A   Clear
10:35 PM 21.2 °F - 15.8 °F 80% 30.11 in 10.0 mi Calm Calm - N/A   Clear
10:55 PM 19.4 °F - 12.2 °F 74% 30.11 in 10.0 mi Calm Calm - N/A   Clear
11:15 PM 19.4 °F 11.5 °F 12.2 °F 74% 30.11 in 9.0 mi SSE 5.8 mph - N/A   Clear
11:35 PM 17.6 °F - 15.8 °F 93% 30.11 in 8.0 mi Calm Calm - N/A   Clear
11:55 PM 19.4 °F - 15.8 °F 86% 30.11 in 8.0 mi Calm Calm - N/A   Clear